Location: Fenile
(46.0500°N, 9.5500°E)
Time: 13:33:57
(UTC+00:00)

Okean 1 - Pass Details

Date: 03 March 2021
Orbit: 538 x 554 km, 82.5° (Epoch: 16 April)

Event Time Altitude Azimuth Distance (km) Brightness Sun altitude
Rises 17:54:00 0° 353° (N) 2,732 7.0 -8.2°
Reaches altitude 10° 17:56:11 10° 357° (N) 1,836 6.0 -8.6°
Maximum altitude 18:00:12 65° 79° (E) 611 3.3 -9.3°
Drops below altitude 10° 18:04:12 10° 162° (SSE) 1,828 5.8 -10.0°
Sets 18:06:22 0° 166° (SSE) 2,719 6.7 -10.4°
